Weather History for Hereford, TX

Change the Weather History Date:

Thursday, February 2, 2012

  Actual Average (KAMA) Record (KAMA)
Temperature  
Mean Temperature 44 °F 38 °F  
Max Temperature 59 °F 52 °F 78 °F (1934)
Min Temperature 30 °F 24 °F -10 °F (1951)
Degree Days  
Heating Degree Days 20 27  
Month to date heating degree days 54  
Since 1 July heating degree days 2639  
Cooling Degree Days 0 0  
Month to date cooling degree days 0  
Year to date cooling degree days 0  
Moisture  
Dew Point 34 °F    
Average Humidity 65    
Maximum Humidity 88    
Minimum Humidity 40    
Precipitation  
Precipitation 0.00 in 0.02 in 0.36 in (1940)
Month to date precipitation 0.04  
Year to date precipitation 0.76  
Snow  
Snow 0.00 in 0.10 in 2.10 in (1982)
Month to date snowfall 0.3  
Since 1 July snowfall 11.4  
Snow Depth -    
Sea Level Pressure  
Sea Level Pressure 29.99 in    
Wind  
Wind Speed 12 mph (SE)    
Max Wind Speed 29 mph    
Max Gust Speed 36 mph    
Visibility 10 miles    
Events      
T = Trace of Precipitation, MM = Missing Value Source: NWS Daily Summary

Daily Weather History Graph

Daily Weather History Graph

Search for Another Location

Airport:

Trip Planner

Search our weather history database for the weather conditions in past years. The results will help you decide how hot, cold, wet, or windy it might be!

Date:

Astronomy

Feb. 02, 2012 Rise Set
Actual Time 7:47 AM CST 6:18 PM CST
Civil Twilight 7:20 AM CST 6:45 PM CST
Nautical Twilight 6:50 AM CST 7:15 PM CST
Astronomical Twilight 6:21 AM CST 7:45 PM CST
Moon 1:36 PM CST (2/2) 3:26 AM CST (2/2)
Length of Visible Light 11h 24m
Length of Day
10h 31m
Waxing Gibbous, 74% of the Moon is Illuminated
Feb 2
Waxing Gibbous
Feb 7
Full
Feb 14
Last Quarter
Feb 21
New
Feb 29
First Quarter

Hourly Weather History & Observations

Time (CST) Temp. Windchill Dew Point Humidity Pressure Visibility Wind Dir Wind Speed Gust Speed Precip Events Conditions
12:15 AM 33.8 °F 29.6 °F 14.0 °F 44% 30.14 in 10.0 mi East 4.6 mph - N/A   Clear
12:35 AM 32.0 °F - 12.2 °F 44% 30.15 in 10.0 mi Calm Calm - N/A   Clear
12:55 AM 30.2 °F - 8.6 °F 40% 30.16 in 10.0 mi Calm Calm - N/A   Clear
1:15 AM 35.6 °F 29.2 °F 17.6 °F 48% 30.16 in 10.0 mi SE 8.1 mph - N/A   Clear
1:35 AM 39.2 °F 32.0 °F 23.0 °F 52% 30.14 in 10.0 mi SE 11.5 mph - N/A   Clear
1:55 AM 39.2 °F 31.6 °F 23.0 °F 52% 30.13 in 10.0 mi SSE 12.7 mph - N/A   Clear
2:15 AM 39.2 °F 31.2 °F 23.0 °F 52% 30.13 in 10.0 mi SSE 13.8 mph - N/A   Clear
2:35 AM 39.2 °F 31.6 °F 24.8 °F 56% 30.13 in 10.0 mi SSE 12.7 mph - N/A   Clear
2:55 AM 37.4 °F 29.8 °F 26.6 °F 65% 30.12 in 10.0 mi SSE 11.5 mph - N/A   Clear
3:15 AM 39.2 °F 32.0 °F 26.6 °F 61% 30.12 in 10.0 mi SSE 11.5 mph - N/A   Clear
3:35 AM 39.2 °F 32.0 °F 28.4 °F 65% 30.11 in 10.0 mi SSE 11.5 mph - N/A   Clear
3:55 AM 39.2 °F 31.6 °F 28.4 °F 65% 30.10 in 10.0 mi SSE 12.7 mph - N/A   Clear
4:15 AM 39.2 °F 32.0 °F 28.4 °F 65% 30.10 in 10.0 mi SSE 11.5 mph - N/A   Clear
4:35 AM 37.4 °F 29.3 °F 28.4 °F 70% 30.10 in 10.0 mi SSE 12.7 mph - N/A   Clear
4:55 AM 37.4 °F 30.3 °F 28.4 °F 70% 30.09 in 10.0 mi SSE 10.4 mph - N/A   Clear
5:15 AM 37.4 °F 29.8 °F 28.4 °F 70% 30.09 in 10.0 mi SSE 11.5 mph - N/A   Clear
5:35 AM 37.4 °F 30.3 °F 30.2 °F 75% 30.09 in 10.0 mi SSE 10.4 mph - N/A   Clear
5:55 AM 37.4 °F 30.3 °F 30.2 °F 75% 30.08 in 10.0 mi SSE 10.4 mph - N/A   Clear
6:15 AM 37.4 °F 29.8 °F 30.2 °F 75% 30.08 in 10.0 mi SSE 11.5 mph - N/A   Clear
6:35 AM 37.4 °F 29.3 °F 30.2 °F 75% 30.07 in 10.0 mi SSE 12.7 mph - N/A   Clear
6:55 AM 37.4 °F 29.8 °F 30.2 °F 75% 30.07 in 10.0 mi SSE 11.5 mph - N/A   Clear
7:15 AM 37.4 °F 28.9 °F 32.0 °F 81% 30.05 in 10.0 mi SSE 13.8 mph - N/A   Clear
7:35 AM 37.4 °F 28.9 °F 32.0 °F 81% 30.04 in 10.0 mi SE 13.8 mph - N/A   Clear
7:55 AM 37.4 °F 29.8 °F 32.0 °F 81% 30.04 in 10.0 mi ESE 11.5 mph - N/A   Clear
8:15 AM 37.4 °F 28.9 °F 32.0 °F 81% 30.03 in 10.0 mi SE 13.8 mph - N/A   Clear
8:35 AM 37.4 °F 29.8 °F 30.2 °F 75% 30.04 in 10.0 mi SE 11.5 mph 18.4 mph N/A   Clear
8:55 AM 39.2 °F 30.8 °F 30.2 °F 70% 30.03 in 10.0 mi SSE 15.0 mph - N/A   Clear
9:15 AM 41.0 °F 33.9 °F 32.0 °F 70% 30.03 in 10.0 mi SE 12.7 mph - N/A   Clear
9:35 AM 42.8 °F 35.1 °F 32.0 °F 66% 30.03 in 10.0 mi SSE 16.1 mph 20.7 mph N/A   Clear
9:55 AM 42.8 °F 35.1 °F 32.0 °F 66% 30.02 in 10.0 mi SE 16.1 mph 24.2 mph N/A   Clear
10:15 AM 46.4 °F 40.4 °F 32.0 °F 57% 30.02 in 10.0 mi SE 13.8 mph 20.7 mph N/A   Clear
10:35 AM 50.0 °F - 32.0 °F 50% 30.00 in 7.0 mi SE 24.2 mph 27.6 mph N/A   Clear
10:55 AM 50.0 °F - 30.2 °F 47% 29.98 in 7.0 mi SSE 21.9 mph 34.5 mph N/A   Clear
11:15 AM 53.6 °F - 32.0 °F 44% 29.96 in 7.0 mi SSE 27.6 mph 32.2 mph N/A   Scattered Clouds
11:35 AM 55.4 °F - 32.0 °F 41% 29.96 in 7.0 mi SSE 24.2 mph 35.7 mph N/A   Scattered Clouds
11:55 AM 55.4 °F - 32.0 °F 41% 29.95 in 10.0 mi SSE 27.6 mph 35.7 mph N/A   Scattered Clouds
12:15 PM 55.4 °F - 33.8 °F 44% 29.94 in 10.0 mi SSE 26.5 mph 33.4 mph N/A   Mostly Cloudy
12:35 PM 55.4 °F - 35.6 °F 47% 29.93 in 10.0 mi SSE 28.8 mph 35.7 mph N/A   Overcast
12:55 PM 55.4 °F - 41.0 °F 58% 29.91 in 10.0 mi SSE 26.5 mph 35.7 mph N/A   Overcast
1:15 PM 53.6 °F - 41.0 °F 62% 29.90 in 10.0 mi SSE 20.7 mph 34.5 mph N/A   Overcast
1:35 PM 53.6 °F - 41.0 °F 62% 29.89 in 10.0 mi SSE 25.3 mph 31.1 mph N/A   Overcast
1:55 PM 55.4 °F - 42.8 °F 63% 29.88 in 10.0 mi SSE 27.6 mph 33.4 mph N/A   Overcast
2:15 PM 55.4 °F - 42.8 °F 63% 29.87 in 10.0 mi SSE 27.6 mph 33.4 mph N/A   Overcast
2:35 PM 59.0 °F - 42.8 °F 55% 29.86 in 10.0 mi South 25.3 mph 32.2 mph N/A   Mostly Cloudy
2:55 PM 57.2 °F - 44.6 °F 63% 29.85 in 10.0 mi South 23.0 mph 32.2 mph N/A   Mostly Cloudy
3:15 PM 55.4 °F - 44.6 °F 67% 29.84 in 10.0 mi SSE 26.5 mph 33.4 mph N/A   Mostly Cloudy
3:55 PM 59.0 °F - 44.6 °F 59% 29.83 in 10.0 mi SSE 25.3 mph 31.1 mph N/A   Scattered Clouds
4:15 PM 55.4 °F - 44.6 °F 67% 29.83 in 10.0 mi SSE 21.9 mph 28.8 mph N/A   Scattered Clouds
4:35 PM 57.2 °F - 44.6 °F 63% 29.83 in 10.0 mi SSE 23.0 mph 27.6 mph N/A   Scattered Clouds
4:55 PM 57.2 °F - 44.6 °F 63% 29.82 in 10.0 mi SE 21.9 mph 28.8 mph N/A   Mostly Cloudy
5:15 PM 53.6 °F - 44.6 °F 72% 29.82 in 10.0 mi SSE 20.7 mph 26.5 mph N/A   Mostly Cloudy
5:35 PM 53.6 °F - 44.6 °F 72% 29.82 in 10.0 mi SSE 16.1 mph 24.2 mph N/A   Clear
5:55 PM 51.8 °F - 44.6 °F 76% 29.81 in 10.0 mi SE 15.0 mph - N/A   Scattered Clouds
6:35 PM 51.8 °F - 46.4 °F 82% 29.82 in 10.0 mi SE 13.8 mph - N/A   Scattered Clouds
6:55 PM 51.8 °F - 46.4 °F 82% 29.84 in 10.0 mi SE 9.2 mph - N/A   Mostly Cloudy
7:15 PM 51.8 °F - 46.4 °F 82% 29.84 in 10.0 mi ESE 11.5 mph - N/A   Overcast
7:55 PM 51.8 °F - 46.4 °F 82% 29.84 in 10.0 mi East 8.1 mph - N/A   Overcast
8:35 PM 51.8 °F - 48.2 °F 88% 29.85 in 10.0 mi ESE 6.9 mph - N/A   Overcast
8:55 PM 51.8 °F - 46.4 °F 82% 29.85 in 10.0 mi SE 6.9 mph - N/A   Overcast
9:15 PM 51.8 °F - 48.2 °F 88% 29.84 in 10.0 mi South 10.4 mph - N/A   Mostly Cloudy
9:55 PM 44.6 °F 39.7 °F 42.8 °F 93% 29.80 in 1.0 mi WNW 9.2 mph - N/A   Mist
10:15 PM 42.8 °F - 41.0 °F 93% 29.84 in 0.5 mi Calm Calm - N/A Fog , Thunderstorm Unknown
10:35 PM 44.6 °F 39.7 °F 42.8 °F 93% 29.84 in 4.0 mi North 9.2 mph - N/A   Mostly Cloudy
10:55 PM 46.4 °F 43.5 °F 44.6 °F 93% 29.85 in 5.0 mi NNE 5.8 mph - N/A   Mostly Cloudy
11:35 PM 44.6 °F 42.2 °F 42.8 °F 93% 29.85 in 3.0 mi North 4.6 mph - N/A   Scattered Clouds
11:55 PM 42.8 °F - 41.0 °F 93% 29.85 in 0.2 mi Calm Calm - N/A Fog Fog